Regional Weather Roundup
Issued by NWS

Home | Current Version | Previous Version | Text Only | Print | Product List | Glossary On
Versions: 1 2 3 4 5 6 7 8 9 10 11 12 13 14 15 16 17 18 19 20 21 22 23 24 25 26 27
000
ASUS45 KBOI 241210
RWRID
WEATHER ROUNDUP FOR IDAHO
NATIONAL WEATHER SERVICE BOISE ID
600 AM MDT THU APR 24 2014

NOTE: "FAIR" INDICATES FEW OR NO CLOUDS BELOW 12000 FEET
WITH NO SIGNIFICANT WEATHER AND/OR OBSTRUCTIONS TO VISIBILITY

IDZ012-014-241300-
SOUTHWEST IDAHO


CITY           SKY/WX    TMP DP  RH WIND       PRES   REMARKS
BOISE          CLOUDY    46  33  60 S5        29.92F
CALDWELL       CLOUDY    50  27  40 S14       29.94R
MOUNTAIN HOME  CLOUDY    45  31  57 E13       29.92S
$$

IDZ016-017-241300-
SOUTHCENTRAL IDAHO


CITY           SKY/WX    TMP DP  RH WIND       PRES   REMARKS
BURLEY         CLOUDY    42  27  55 S12       29.95F
JEROME         CLOUDY    43  27  53 SE7       29.95F
TWIN FALLS     CLOUDY    49  25  39 S13       29.94S
$$

IDZ019>023-241300-
SOUTHEAST IDAHO


CITY           SKY/WX    TMP DP  RH WIND       PRES   REMARKS
IDAHO FALLS    PTCLDY    36  25  64 S6        29.98F WCI  31
POCATELLO      CLEAR     43  23  45 S14       29.98S
REXBURG        PTCLDY    37  23  56 S10       29.98S WCI  30
$$

IDZ006-010-011-018-031-032-241300-
CENTRAL IDAHO MOUNTAINS


CITY           SKY/WX    TMP DP  RH WIND       PRES   REMARKS
MCCALL         LGT RAIN  34  31  88 S9        29.87F WCI  27
HAILEY         MOCLDY    36  27  69 NW6       29.97F WCI  31
STANLEY          N/A     36  24  62 S8        29.91F WCI  30
SALMON         CLOUDY    39  28  65 CALM      29.86F
CHALLIS        CLOUDY    42  23  46 S10       29.88F
$$

IDZ002-004-006-007-026-241300-
NORTHERN IDAHO


CITY           SKY/WX    TMP DP  RH WIND       PRES   REMARKS
LEWISTON       LGT RAIN  45  39  79 E10       29.80S
LOWELL           N/A     40  39  97 CALM      29.88F
COEUR D`ALENE  CLOUDY    39  37  93 N3        29.78F
MULLAN PASS    SNOW      28  28 100 VRB5      29.73F VSB 1/2 WCI  23
$$



USA.gov is the U.S. government's official web portal to all federal, state and local government web resources and services.